Zurück zum Katalog

STARLINK-36285

AktivKommunikationVLEO
NORAD 68530·PAYLOAD·🇺🇸 United States

Gestartet Mar 30, 2026 von Cape Canaveral Space Force Station

Loading…

Nächste Überflüge (nächste 24 Stunden)

TLE

AktuellSource: CelesTrak SupGP

Epoche: Sep 14, 2026, 15:18 UTC

1 68530C 26068Y   26257.63798611  .00036038  00000+0  10651-2 0  2578
2 68530  53.1598 329.1846 0001126  65.0370  96.2335 15.34362946    11

Verfolge STARLINK-36285 in Echtzeit mit AllMySat

Download on the App Store